Time,TemperatureF,DewpointF,PressureIn,WindDirection,WindDirectionDegrees,WindSpeedMPH,WindSpeedGustMPH,Humidity,HourlyPrecipIn,Conditions,Clouds,dailyrainin,SoftwareType,DateUTC
2013-05-05 00:02:00,76.0,67.0,29.80,WNW,285,9.0,22.0,73,0.00,,,0.01,,2013-05-05 04:02:00,
2013-05-05 00:12:00,76.0,67.0,29.80,WNW,285,9.0,22.0,73,0.00,,,0.01,,2013-05-05 04:12:00,
2013-05-05 00:23:00,76.0,67.0,29.79,West,271,16.0,21.0,74,0.00,,,0.01,,2013-05-05 04:23:00,
2013-05-05 00:32:00,76.0,67.0,29.79,West,272,14.0,25.0,75,0.00,,,0.01,,2013-05-05 04:32:00,
2013-05-05 00:43:00,76.0,67.0,29.79,West,272,14.0,25.0,75,0.00,,,0.01,,2013-05-05 04:43:00,
2013-05-05 00:53:00,76.0,68.0,29.79,West,273,15.0,25.0,77,0.00,,,0.01,,2013-05-05 04:53:00,
2013-05-05 01:02:00,76.0,69.0,29.79,WNW,284,14.0,23.0,78,0.00,,,0.01,,2013-05-05 05:02:00,
2013-05-05 01:12:00,76.0,69.0,29.79,WNW,284,14.0,23.0,78,0.00,,,0.01,,2013-05-05 05:12:00,
2013-05-05 01:22:00,75.0,67.0,29.79,West,280,13.0,22.0,75,0.00,,,0.01,,2013-05-05 05:22:00,
2013-05-05 01:32:00,75.0,65.0,29.79,WNW,288,15.0,23.0,72,0.00,,,0.01,,2013-05-05 05:32:00,
2013-05-05 01:42:00,75.0,65.0,29.79,WNW,288,15.0,23.0,72,0.00,,,0.01,,2013-05-05 05:42:00,
2013-05-05 01:52:00,76.0,66.0,29.78,WNW,296,15.0,20.0,72,0.00,,,0.01,,2013-05-05 05:52:00,
2013-05-05 02:01:00,75.0,65.0,29.78,WNW,300,11.0,18.0,72,0.00,,,0.01,,2013-05-05 06:01:00,
2013-05-05 02:12:00,75.0,65.0,29.78,WNW,300,11.0,18.0,72,0.00,,,0.01,,2013-05-05 06:12:00,
2013-05-05 02:21:00,75.0,65.0,29.77,WNW,289,12.0,18.0,70,0.00,,,0.01,,2013-05-05 06:21:00,
2013-05-05 02:32:00,75.0,65.0,29.77,West,275,12.0,19.0,71,0.00,,,0.01,,2013-05-05 06:32:00,
2013-05-05 02:42:00,75.0,65.0,29.77,West,275,12.0,19.0,71,0.00,,,0.01,,2013-05-05 06:42:00,
2013-05-05 02:52:00,75.0,66.0,29.76,WNW,284,11.0,19.0,74,0.00,,,0.01,,2013-05-05 06:52:00,
2013-05-05 03:01:00,75.0,66.0,29.76,West,267,11.0,21.0,74,0.00,,,0.01,,2013-05-05 07:01:00,
2013-05-05 03:11:00,75.0,66.0,29.76,West,267,11.0,21.0,74,0.00,,,0.01,,2013-05-05 07:11:00,
2013-05-05 03:22:00,75.0,68.0,29.76,WNW,290,9.0,22.0,78,0.00,,,0.01,,2013-05-05 07:22:00,
2013-05-05 03:32:00,74.0,67.0,29.76,West,265,10.0,19.0,78,0.00,,,0.01,,2013-05-05 07:32:00,
2013-05-05 03:42:00,74.0,67.0,29.76,West,265,10.0,19.0,78,0.00,,,0.01,,2013-05-05 07:42:00,
2013-05-05 03:52:00,74.0,67.0,29.75,NW,306,14.0,19.0,78,0.00,,,0.01,,2013-05-05 07:52:00,
2013-05-05 04:02:00,74.0,67.0,29.75,WNW,303,11.0,21.0,78,0.00,,,0.01,,2013-05-05 08:02:00,
2013-05-05 04:11:00,74.0,67.0,29.75,WNW,303,11.0,21.0,78,0.00,,,0.01,,2013-05-05 08:11:00,
2013-05-05 04:21:00,74.0,66.0,29.76,WNW,296,12.0,21.0,77,0.00,,,0.01,,2013-05-05 08:21:00,
2013-05-05 04:32:00,74.0,66.0,29.75,West,279,16.0,22.0,76,0.00,,,0.01,,2013-05-05 08:32:00,
2013-05-05 04:42:00,74.0,66.0,29.75,West,279,16.0,22.0,76,0.00,,,0.01,,2013-05-05 08:42:00,
2013-05-05 04:53:00,74.0,65.0,29.75,WNW,282,16.0,23.0,74,0.00,,,0.01,,2013-05-05 08:53:00,
2013-05-05 05:01:00,74.0,65.0,29.75,NW,309,15.0,23.0,74,0.00,,,0.01,,2013-05-05 09:01:00,
2013-05-05 05:11:00,74.0,65.0,29.75,NW,309,15.0,23.0,74,0.00,,,0.01,,2013-05-05 09:11:00,
2013-05-05 05:21:00,74.0,64.0,29.76,West,267,14.0,21.0,70,0.00,,,0.01,,2013-05-05 09:21:00,
2013-05-05 05:33:00,74.0,64.0,29.76,West,265,11.0,20.0,70,0.00,,,0.01,,2013-05-05 09:33:00,
2013-05-05 05:42:00,74.0,64.0,29.76,West,265,11.0,20.0,70,0.00,,,0.01,,2013-05-05 09:42:00,
2013-05-05 05:52:00,74.0,65.0,29.76,West,272,8.0,15.0,73,0.00,,,0.01,,2013-05-05 09:52:00,
2013-05-05 06:03:00,75.0,67.0,29.77,West,278,12.0,19.0,75,0.00,,,0.01,,2013-05-05 10:03:00,
2013-05-05 06:12:00,75.0,67.0,29.77,West,278,12.0,19.0,75,0.00,,,0.01,,2013-05-05 10:12:00,
2013-05-05 06:22:00,74.0,66.0,29.77,West,279,13.0,20.0,75,0.00,,,0.01,,2013-05-05 10:22:00,
2013-05-05 06:32:00,74.0,66.0,29.77,WNW,288,13.0,21.0,75,0.00,,,0.01,,2013-05-05 10:32:00,
2013-05-05 06:42:00,74.0,66.0,29.77,WNW,288,13.0,21.0,75,0.00,,,0.01,,2013-05-05 10:42:00,
2013-05-05 06:53:00,74.0,66.0,29.78,WNW,294,10.0,20.0,75,0.00,,,0.01,,2013-05-05 10:53:00,
2013-05-05 07:01:00,74.0,66.0,29.79,West,272,15.0,20.0,76,0.00,,,0.01,,2013-05-05 11:01:00,
2013-05-05 07:12:00,74.0,66.0,29.79,West,272,15.0,20.0,76,0.00,,,0.01,,2013-05-05 11:12:00,
2013-05-05 07:22:00,74.0,66.0,29.80,WNW,302,14.0,19.0,76,0.00,,,0.01,,2013-05-05 11:22:00,
2013-05-05 07:32:00,74.0,66.0,29.80,West,277,12.0,19.0,76,0.00,,,0.01,,2013-05-05 11:32:00,
2013-05-05 07:42:00,74.0,66.0,29.80,West,277,12.0,19.0,76,0.00,,,0.01,,2013-05-05 11:42:00,
2013-05-05 07:52:00,74.0,66.0,29.82,NW,309,9.0,19.0,76,0.00,,,0.01,,2013-05-05 11:52:00,
2013-05-05 08:02:00,74.0,66.0,29.82,WNW,286,13.0,19.0,76,0.00,,,0.01,,2013-05-05 12:02:00,
2013-05-05 08:11:00,74.0,66.0,29.82,WNW,286,13.0,19.0,76,0.00,,,0.01,,2013-05-05 12:11:00,
2013-05-05 08:22:00,74.0,66.0,29.83,NW,317,14.0,18.0,75,0.00,,,0.01,,2013-05-05 12:22:00,
2013-05-05 08:32:00,74.0,66.0,29.83,WNW,297,11.0,19.0,75,0.00,,,0.01,,2013-05-05 12:32:00,
2013-05-05 08:42:00,74.0,66.0,29.83,WNW,297,11.0,19.0,75,0.00,,,0.01,,2013-05-05 12:42:00,
2013-05-05 08:52:00,74.0,65.0,29.83,West,264,8.0,22.0,74,0.00,,,0.01,,2013-05-05 12:52:00,
2013-05-05 09:01:00,75.0,66.0,29.83,West,275,12.0,20.0,74,0.00,,,0.01,,2013-05-05 13:01:00,
2013-05-05 09:11:00,75.0,66.0,29.83,West,275,12.0,20.0,74,0.00,,,0.01,,2013-05-05 13:11:00,
2013-05-05 09:21:00,75.0,65.0,29.84,WNW,282,12.0,20.0,72,0.00,,,0.01,,2013-05-05 13:21:00,
2013-05-05 09:32:00,75.0,65.0,29.84,West,280,7.0,19.0,72,0.00,,,0.01,,2013-05-05 13:32:00,
2013-05-05 09:42:00,75.0,65.0,29.84,West,280,7.0,19.0,72,0.00,,,0.01,,2013-05-05 13:42:00,
2013-05-05 09:52:00,75.0,65.0,29.85,WNW,288,10.0,19.0,71,0.00,,,0.01,,2013-05-05 13:52:00,
2013-05-05 10:02:00,75.0,65.0,29.84,WNW,299,13.0,20.0,71,0.00,,,0.01,,2013-05-05 14:02:00,
2013-05-05 10:11:00,75.0,65.0,29.84,WNW,299,13.0,20.0,71,0.00,,,0.01,,2013-05-05 14:11:00,
2013-05-05 10:21:00,76.0,65.0,29.85,West,271,6.0,20.0,70,0.00,,,0.01,,2013-05-05 14:21:00,
2013-05-05 10:32:00,76.0,65.0,29.85,WNW,297,11.0,19.0,70,0.00,,,0.01,,2013-05-05 14:32:00,
2013-05-05 10:42:00,76.0,65.0,29.85,WNW,297,11.0,19.0,70,0.00,,,0.01,,2013-05-05 14:42:00,
2013-05-05 10:52:00,76.0,65.0,29.86,West,264,8.0,22.0,70,0.00,,,0.00,,2013-05-05 14:52:00,
2013-05-05 11:02:00,76.0,65.0,29.86,West,272,11.0,21.0,69,0.00,,,0.00,,2013-05-05 15:02:00,
2013-05-05 11:11:00,76.0,65.0,29.86,West,272,11.0,21.0,69,0.00,,,0.00,,2013-05-05 15:11:00,
2013-05-05 11:21:00,76.0,65.0,29.86,WNW,288,14.0,20.0,68,0.00,,,0.00,,2013-05-05 15:21:00,
2013-05-05 11:33:00,76.0,65.0,29.86,West,267,10.0,20.0,68,0.00,,,0.00,,2013-05-05 15:33:00,
2013-05-05 11:43:00,76.0,65.0,29.86,West,267,10.0,20.0,68,0.00,,,0.00,,2013-05-05 15:43:00,
2013-05-05 11:53:00,76.0,65.0,29.87,NW,305,10.0,20.0,68,0.00,,,0.00,,2013-05-05 15:53:00,
2013-05-05 12:03:00,76.0,64.0,29.86,WNW,296,6.0,18.0,67,0.00,,,0.00,,2013-05-05 16:03:00,
2013-05-05 12:12:00,76.0,64.0,29.86,WNW,296,6.0,18.0,67,0.00,,,0.00,,2013-05-05 16:12:00,
2013-05-05 12:23:00,76.0,65.0,29.88,NW,306,12.0,21.0,69,0.00,,,0.00,,2013-05-05 16:23:00,
2013-05-05 12:32:00,76.0,65.0,29.87,West,267,13.0,23.0,68,0.00,,,0.00,,2013-05-05 16:32:00,
2013-05-05 12:42:00,76.0,65.0,29.87,West,267,13.0,23.0,68,0.00,,,0.00,,2013-05-05 16:42:00,
2013-05-05 12:53:00,76.0,65.0,29.87,WNW,298,15.0,20.0,68,0.00,,,0.00,,2013-05-05 16:53:00,
2013-05-05 13:02:00,75.0,64.0,29.87,WNW,286,12.0,22.0,69,0.00,,,0.00,,2013-05-05 17:02:00,
2013-05-05 13:12:00,75.0,64.0,29.87,WNW,286,12.0,22.0,69,0.00,,,0.00,,2013-05-05 17:12:00,
2013-05-05 13:23:00,76.0,65.0,29.86,West,275,10.0,20.0,69,0.00,,,0.00,,2013-05-05 17:23:00,
2013-05-05 13:32:00,76.0,65.0,29.86,West,278,17.0,21.0,69,0.00,,,0.00,,2013-05-05 17:32:00,
2013-05-05 13:42:00,76.0,65.0,29.86,West,278,17.0,21.0,69,0.00,,,0.00,,2013-05-05 17:42:00,
2013-05-05 13:52:00,76.0,65.0,29.86,West,263,11.0,18.0,70,0.00,,,0.00,,2013-05-05 17:52:00,
2013-05-05 14:01:00,76.0,65.0,29.86,West,269,13.0,21.0,69,0.00,,,0.00,,2013-05-05 18:01:00,
2013-05-05 14:12:00,76.0,65.0,29.86,West,269,13.0,21.0,69,0.00,,,0.00,,2013-05-05 18:12:00,
2013-05-05 14:21:00,76.0,65.0,29.85,West,281,16.0,22.0,70,0.00,,,0.00,,2013-05-05 18:21:00,
2013-05-05 14:32:00,76.0,65.0,29.85,West,269,14.0,23.0,70,0.00,,,0.00,,2013-05-05 18:32:00,
2013-05-05 14:42:00,76.0,65.0,29.85,West,269,14.0,23.0,70,0.00,,,0.00,,2013-05-05 18:42:00,
2013-05-05 14:52:00,76.0,66.0,29.85,West,274,14.0,24.0,72,0.00,,,0.00,,2013-05-05 18:52:00,
2013-05-05 15:01:00,76.0,66.0,29.84,WNW,285,16.0,22.0,72,0.00,,,0.00,,2013-05-05 19:01:00,
2013-05-05 15:11:00,76.0,66.0,29.84,WNW,285,16.0,22.0,72,0.00,,,0.00,,2013-05-05 19:11:00,
2013-05-05 15:21:00,76.0,66.0,29.84,WNW,288,17.0,22.0,71,0.00,,,0.00,,2013-05-05 19:21:00,
2013-05-05 15:32:00,76.0,66.0,29.84,West,272,16.0,24.0,72,0.00,,,0.00,,2013-05-05 19:32:00,
2013-05-05 15:42:00,76.0,66.0,29.84,West,272,16.0,24.0,72,0.00,,,0.00,,2013-05-05 19:42:00,
2013-05-05 15:52:00,76.0,66.0,29.83,WNW,285,17.0,25.0,72,0.00,,,0.00,,2013-05-05 19:52:00,
2013-05-05 16:01:00,76.0,66.0,29.82,West,279,19.0,25.0,72,0.00,,,0.00,,2013-05-05 20:01:00,
2013-05-05 16:11:00,76.0,66.0,29.82,West,279,19.0,25.0,72,0.00,,,0.00,,2013-05-05 20:11:00,
2013-05-05 16:21:00,76.0,67.0,29.82,West,270,19.0,26.0,73,0.00,,,0.00,,2013-05-05 20:21:00,
2013-05-05 16:32:00,76.0,66.0,29.83,West,273,19.0,28.0,72,0.00,,,0.00,,2013-05-05 20:32:00,
2013-05-05 16:42:00,76.0,66.0,29.83,West,273,19.0,28.0,72,0.00,,,0.00,,2013-05-05 20:42:00,
2013-05-05 16:52:00,76.0,66.0,29.82,West,279,18.0,25.0,72,0.00,,,0.00,,2013-05-05 20:52:00,
2013-05-05 17:02:00,76.0,66.0,29.82,West,268,15.0,28.0,72,0.00,,,0.00,,2013-05-05 21:02:00,
2013-05-05 17:11:00,76.0,66.0,29.82,West,268,15.0,28.0,72,0.00,,,0.00,,2013-05-05 21:11:00,
2013-05-05 17:21:00,76.0,67.0,29.82,WSW,257,20.0,29.0,73,0.00,,,0.00,,2013-05-05 21:21:00,
2013-05-05 17:33:00,76.0,66.0,29.82,WNW,290,19.0,25.0,72,0.00,,,0.00,,2013-05-05 21:33:00,
2013-05-05 17:42:00,76.0,66.0,29.82,WNW,290,19.0,25.0,72,0.00,,,0.00,,2013-05-05 21:42:00,
2013-05-05 17:53:00,76.0,67.0,29.82,WNW,292,18.0,25.0,73,0.00,,,0.00,,2013-05-05 21:53:00,
2013-05-05 18:02:00,76.0,66.0,29.83,West,278,17.0,25.0,72,0.00,,,0.00,,2013-05-05 22:02:00,
2013-05-05 18:12:00,76.0,66.0,29.83,West,278,17.0,25.0,72,0.00,,,0.00,,2013-05-05 22:12:00,
2013-05-05 18:22:00,76.0,66.0,29.83,West,281,20.0,29.0,71,0.00,,,0.00,,2013-05-05 22:22:00,
2013-05-05 18:33:00,75.0,65.0,29.83,West,281,16.0,31.0,71,0.00,,,0.00,,2013-05-05 22:33:00,
2013-05-05 18:42:00,75.0,65.0,29.83,West,281,16.0,31.0,71,0.00,,,0.00,,2013-05-05 22:42:00,
2013-05-05 18:52:00,75.0,66.0,29.83,West,277,18.0,25.0,73,0.00,,,0.00,,2013-05-05 22:52:00,
2013-05-05 19:02:00,75.0,65.0,29.83,West,277,17.0,26.0,71,0.00,,,0.00,,2013-05-05 23:02:00,
2013-05-05 19:12:00,75.0,65.0,29.83,West,277,17.0,26.0,71,0.00,,,0.00,,2013-05-05 23:12:00,
2013-05-05 19:21:00,75.0,65.0,29.83,West,280,20.0,26.0,71,0.00,,,0.00,,2013-05-05 23:21:00,
2013-05-05 19:32:00,75.0,66.0,29.84,WNW,300,17.0,24.0,73,0.00,,,0.00,,2013-05-05 23:32:00,
2013-05-05 19:42:00,75.0,66.0,29.84,WNW,300,17.0,24.0,73,0.00,,,0.00,,2013-05-05 23:42:00,
2013-05-05 19:52:00,75.0,65.0,29.84,WNW,284,16.0,27.0,71,0.00,,,0.00,,2013-05-05 23:52:00,
2013-05-05 20:01:00,75.0,65.0,29.85,West,275,17.0,26.0,71,0.00,,,0.00,,2013-05-06 00:01:00,
2013-05-05 20:11:00,75.0,65.0,29.85,West,275,17.0,26.0,71,0.00,,,0.00,,2013-05-06 00:11:00,
2013-05-05 20:21:00,75.0,65.0,29.85,WNW,286,17.0,25.0,71,0.00,,,0.00,,2013-05-06 00:21:00,
2013-05-05 20:32:00,74.0,64.0,29.86,West,272,16.0,22.0,70,0.00,,,0.00,,2013-05-06 00:32:00,
2013-05-05 20:42:00,74.0,64.0,29.86,West,272,16.0,22.0,70,0.00,,,0.00,,2013-05-06 00:42:00,
2013-05-05 20:52:00,74.0,64.0,29.87,West,275,18.0,24.0,71,0.00,,,0.00,,2013-05-06 00:52:00,
2013-05-05 21:01:00,74.0,64.0,29.87,NW,312,16.0,22.0,70,0.00,,,0.00,,2013-05-06 01:01:00,
2013-05-05 21:11:00,74.0,64.0,29.87,NW,312,16.0,22.0,70,0.00,,,0.00,,2013-05-06 01:11:00,
2013-05-05 21:21:00,74.0,64.0,29.88,West,279,14.0,23.0,72,0.00,,,0.00,,2013-05-06 01:21:00,
2013-05-05 21:32:00,74.0,64.0,29.88,WNW,302,15.0,23.0,71,0.00,,,0.00,,2013-05-06 01:32:00,
2013-05-05 21:42:00,74.0,64.0,29.88,WNW,302,15.0,23.0,71,0.00,,,0.00,,2013-05-06 01:42:00,
2013-05-05 21:52:00,74.0,65.0,29.88,WNW,295,14.0,22.0,73,0.00,,,0.00,,2013-05-06 01:52:00,
2013-05-05 22:02:00,74.0,64.0,29.88,WNW,302,15.0,23.0,72,0.00,,,0.00,,2013-05-06 02:02:00,
2013-05-05 22:12:00,74.0,64.0,29.88,WNW,302,15.0,23.0,72,0.00,,,0.00,,2013-05-06 02:12:00,
2013-05-05 22:21:00,74.0,66.0,29.89,NW,304,12.0,23.0,75,0.00,,,0.00,,2013-05-06 02:21:00,
2013-05-05 22:32:00,74.0,66.0,29.89,NW,313,13.0,21.0,75,0.00,,,0.00,,2013-05-06 02:32:00,
2013-05-05 22:42:00,74.0,66.0,29.89,NW,313,13.0,21.0,75,0.00,,,0.00,,2013-05-06 02:42:00,
2013-05-05 22:52:00,74.0,66.0,29.90,NW,313,12.0,21.0,75,0.00,,,0.00,,2013-05-06 02:52:00,
2013-05-05 23:02:00,74.0,66.0,29.90,NW,309,13.0,20.0,76,0.00,,,0.00,,2013-05-06 03:02:00,
2013-05-05 23:11:00,74.0,66.0,29.90,NW,309,13.0,20.0,76,0.00,,,0.00,,2013-05-06 03:11:00,
2013-05-05 23:22:00,74.0,65.0,29.90,NW,315,14.0,20.0,73,0.00,,,0.00,,2013-05-06 03:22:00,
2013-05-05 23:33:00,74.0,64.0,29.91,NW,315,14.0,22.0,71,0.00,,,0.00,,2013-05-06 03:33:00,
2013-05-05 23:42:00,74.0,64.0,29.91,NW,315,14.0,22.0,71,0.00,,,0.00,,2013-05-06 03:42:00,
2013-05-05 23:53:00,74.0,64.0,29.91,NW,311,15.0,22.0,71,0.00,,,0.00,,2013-05-06 03:53:00,